{"data":{"norad_id":60355,"epoch":"2026-05-25T04:21:52.405920Z","epoch_age_seconds":69403,"freshness":"FRESH","line1":"1 60355U 24138A   26145.18185655  .00000549  00000+0  30685-4 0  9997","line2":"2 60355  53.1620 313.9721 0001366  89.5385 270.5773 15.30192996102344","mean_motion":15.30192996,"eccentricity":0.0001366,"inclination_deg":53.162,"raan_deg":313.9721,"arg_perigee_deg":89.5385,"mean_anomaly_deg":270.5773,"bstar":3.0685e-5,"rev_number":10234,"period_min":94.10577644547,"perigee_km":474.29981143125,"apogee_km":476.17215292998,"semimajor_km":6853.3729821806,"source":"CELESTRAK","updated_at":"2026-05-25T13:38:19.237647Z"}}